Weather History for Cooperstown, ND

Change the Weather History Date:

Tuesday, February 26, 2013

  Actual Average (KJMS) Record (KJMS)
Temperature  
Mean Temperature 14 °F 19 °F  
Max Temperature 24 °F 29 °F 56 °F (1896)
Min Temperature 5 °F 10 °F -24 °F (1897)
Degree Days  
Heating Degree Days 50 46  
Month to date heating degree days 1307  
Since 1 July heating degree days 6669  
Cooling Degree Days 0 0  
Month to date cooling degree days 0  
Year to date cooling degree days 0  
Moisture  
Dew Point 13 °F    
Average Humidity 95    
Maximum Humidity 100    
Minimum Humidity 80    
Precipitation  
Precipitation 0.00 in 0.02 in 0.34 in (1958)
Month to date precipitation 0.36  
Year to date precipitation 0.81  
Sea Level Pressure  
Sea Level Pressure 29.98 in    
Wind  
Wind Speed 6 mph (SSW)    
Max Wind Speed 10 mph    
Max Gust Speed -    
Visibility 8 miles    
Events Fog , Snow    
T = Trace of Precipitation, MM = Missing Value Source: NWS Daily Summary

Daily Weather History Graph

Daily Weather History Graph

Search for Another Location

Airport:

Trip Planner

Search our weather history database for the weather conditions in past years. The results will help you decide how hot, cold, wet, or windy it might be!

Date:

Astronomy

Feb. 26, 2013 Rise Set
Actual Time 7:17 AM CST 6:13 PM CST
Civil Twilight 6:46 AM CST 6:44 PM CST
Nautical Twilight 6:11 AM CST 7:19 PM CST
Astronomical Twilight 5:35 AM CST 7:55 PM CST
Moon 7:41 PM CST (2/26) 7:14 AM CST (2/26)
Length of Visible Light 11h 57m
Length of Day
10h 55m
Full, 99% of the Moon is Illuminated
Feb 26
Full
Mar 4
Last Quarter
Mar 11
New
Mar 19
First Quarter
Mar 27
Full

Hourly Weather History & Observations

Time (CST) Temp. Windchill Dew Point Humidity Pressure Visibility Wind Dir Wind Speed Gust Speed Precip Events Conditions
12:15 AM 14.0 °F 1.2 °F 14.0 °F 100% 29.93 in 10.0 mi South 10.4 mph - N/A   Clear
12:35 AM 14.0 °F 2.9 °F 14.0 °F 100% 29.93 in 10.0 mi South 8.1 mph - N/A   Clear
12:55 AM 12.2 °F -0.2 °F 12.2 °F 100% 29.92 in 10.0 mi SSW 9.2 mph - N/A   Clear
1:15 AM 12.2 °F 1.7 °F 12.2 °F 100% 29.93 in 10.0 mi SSW 6.9 mph - N/A   Clear
1:35 AM 12.2 °F -0.2 °F 10.4 °F 92% 29.93 in 10.0 mi South 9.2 mph - N/A   Clear
1:55 AM 10.4 °F -0.4 °F 10.4 °F 100% 29.93 in 10.0 mi South 6.9 mph - N/A   Clear
2:15 AM 10.4 °F -2.4 °F 10.4 °F 100% 29.93 in 10.0 mi South 9.2 mph - N/A   Clear
2:35 AM 10.4 °F -2.4 °F 10.4 °F 100% 29.93 in 10.0 mi South 9.2 mph - N/A   Clear
2:55 AM 8.6 °F -4.7 °F 8.6 °F 100% 29.93 in 10.0 mi South 9.2 mph - N/A   Clear
3:15 AM 10.4 °F -1.5 °F 8.6 °F 92% 29.93 in 10.0 mi South 8.1 mph - N/A   Clear
3:35 AM 8.6 °F -2.6 °F 8.6 °F 100% 29.93 in 10.0 mi South 6.9 mph - N/A   Clear
3:55 AM 8.6 °F -5.5 °F 8.6 °F 100% 29.93 in 10.0 mi South 10.4 mph - N/A   Clear
4:15 AM 8.6 °F -3.7 °F 8.6 °F 100% 29.93 in 10.0 mi South 8.1 mph - N/A   Clear
4:35 AM 8.6 °F -5.5 °F 6.8 °F 92% 29.94 in 10.0 mi South 10.4 mph - N/A   Clear
4:55 AM 8.6 °F -4.7 °F 8.6 °F 100% 29.94 in 10.0 mi South 9.2 mph - N/A   Clear
5:15 AM 8.6 °F -3.7 °F 6.8 °F 92% 29.95 in 10.0 mi South 8.1 mph - N/A   Clear
5:35 AM 8.6 °F -2.6 °F 8.6 °F 100% 29.95 in 10.0 mi South 6.9 mph - N/A   Clear
5:55 AM 6.8 °F -4.8 °F 6.8 °F 100% 29.96 in 10.0 mi South 6.9 mph - N/A   Clear
6:15 AM 6.8 °F -3.5 °F 6.8 °F 100% 29.95 in 9.0 mi South 5.8 mph - N/A   Clear
6:35 AM 6.8 °F -4.8 °F 6.8 °F 100% 29.95 in 5.0 mi South 6.9 mph - N/A   Clear
6:55 AM 8.6 °F -2.6 °F 8.6 °F 100% 29.95 in 0.8 mi South 6.9 mph - N/A   Mist
7:15 AM 6.8 °F -2.0 °F 6.8 °F 100% 29.95 in 0.2 mi South 4.6 mph - N/A Fog Light Freezing Fog
7:35 AM 5.0 °F -4.1 °F 5.0 °F 100% 29.95 in 0.2 mi South 4.6 mph - N/A Fog Light Freezing Fog
7:55 AM 5.0 °F -4.1 °F 3.2 °F 92% 29.95 in 0.2 mi SSE 4.6 mph - N/A Fog Light Freezing Fog
8:15 AM 5.0 °F -5.6 °F 1.4 °F 85% 29.96 in 0.2 mi SSE 5.8 mph - N/A Fog Light Freezing Fog
8:35 AM 5.0 °F -5.6 °F 3.2 °F 92% 29.96 in 0.2 mi SSE 5.8 mph - N/A Fog Light Freezing Fog
8:55 AM 6.8 °F -2.0 °F 5.0 °F 92% 29.96 in 3.0 mi South 4.6 mph - N/A   Clear
9:15 AM 8.6 °F 0.1 °F 6.8 °F 92% 29.96 in 5.0 mi SSE 4.6 mph - N/A   Clear
9:35 AM 8.6 °F 0.1 °F 8.6 °F 100% 29.96 in 7.0 mi SSE 4.6 mph - N/A   Clear
9:55 AM 10.4 °F - 10.4 °F 100% 29.96 in 8.0 mi Calm Calm - N/A   Clear
10:15 AM 12.2 °F - 10.4 °F 92% 29.97 in 7.0 mi Calm Calm - N/A Snow Light Snow
10:35 AM 14.0 °F 8.2 °F 14.0 °F 100% 29.98 in 9.0 mi South 3.5 mph - N/A   Clear
10:55 AM 14.0 °F 3.9 °F 14.0 °F 100% 29.98 in 8.0 mi South 6.9 mph - N/A   Clear
11:15 AM 15.8 °F 7.2 °F 15.8 °F 100% 29.98 in 9.0 mi South 5.8 mph - N/A   Clear
11:35 AM 17.6 °F 8.2 °F 17.6 °F 100% 29.99 in 9.0 mi South 6.9 mph - N/A   Clear
11:55 AM 17.6 °F 9.3 °F 17.6 °F 100% 29.99 in 10.0 mi South 5.8 mph - N/A   Clear
12:15 PM 19.4 °F 10.4 °F 19.4 °F 100% 29.99 in 10.0 mi South 6.9 mph - N/A   Clear
12:35 PM 21.2 °F 14.9 °F 19.4 °F 93% 29.99 in 10.0 mi South 4.6 mph - N/A   Clear
12:55 PM 23.0 °F 15.8 °F 19.4 °F 86% 29.99 in 10.0 mi South 5.8 mph - N/A   Clear
1:15 PM 23.0 °F 14.7 °F 19.4 °F 86% 29.99 in 10.0 mi SSW 6.9 mph - N/A   Clear
1:35 PM 23.0 °F 15.8 °F 19.4 °F 86% 29.99 in 9.0 mi South 5.8 mph - N/A   Clear
1:55 PM 24.8 °F 20.5 °F 21.2 °F 86% 29.98 in 9.0 mi South 3.5 mph - N/A   Clear
2:15 PM 24.8 °F 20.5 °F 21.2 °F 86% 29.99 in 9.0 mi South 3.5 mph - N/A   Clear
2:35 PM 24.8 °F 20.5 °F 21.2 °F 86% 29.99 in 10.0 mi SW 3.5 mph - N/A   Clear
2:55 PM 24.8 °F 19.1 °F 21.2 °F 86% 29.99 in 10.0 mi SSW 4.6 mph - N/A   Clear
3:15 PM 24.8 °F 17.9 °F 21.2 °F 86% 30.00 in 10.0 mi SSW 5.8 mph - N/A   Clear
3:35 PM 24.8 °F 19.1 °F 21.2 °F 86% 30.00 in 10.0 mi SW 4.6 mph - N/A   Clear
3:55 PM 24.8 °F 20.5 °F 19.4 °F 80% 29.99 in 9.0 mi SW 3.5 mph - N/A   Clear
4:15 PM 23.0 °F - 19.4 °F 86% 29.99 in 9.0 mi Calm Calm - N/A   Clear
4:35 PM 23.0 °F - 19.4 °F 86% 29.99 in 10.0 mi Calm Calm - N/A   Clear
4:55 PM 23.0 °F - 19.4 °F 86% 29.99 in 10.0 mi Calm Calm - N/A   Clear
5:15 PM 24.8 °F - 19.4 °F 80% 30.00 in 9.0 mi Calm Calm - N/A   Clear
5:35 PM 23.0 °F - 19.4 °F 86% 30.00 in 10.0 mi Calm Calm - N/A   Clear
5:55 PM 23.0 °F - 19.4 °F 86% 30.01 in 9.0 mi Calm Calm - N/A   Clear
6:15 PM 21.2 °F - 19.4 °F 93% 30.01 in 9.0 mi Calm Calm - N/A   Clear
6:35 PM 19.4 °F - 19.4 °F 100% 30.01 in 8.0 mi Calm Calm - N/A   Clear
6:55 PM 17.6 °F - 17.6 °F 100% 30.02 in 9.0 mi Calm Calm - N/A   Clear
7:15 PM 17.6 °F - 17.6 °F 100% 30.02 in 7.0 mi Calm Calm - N/A   Clear
7:35 PM 15.8 °F 10.2 °F 15.8 °F 100% 30.02 in 5.0 mi West 3.5 mph - N/A   Clear
7:55 PM 15.8 °F 10.2 °F 15.8 °F 100% 30.03 in 6.0 mi WNW 3.5 mph - N/A   Clear
8:15 PM 14.0 °F 6.5 °F 14.0 °F 100% 30.04 in 5.0 mi West 4.6 mph - N/A   Clear
8:35 PM 14.0 °F 8.2 °F 14.0 °F 100% 30.04 in 6.0 mi WNW 3.5 mph - N/A   Clear
8:55 PM 14.0 °F 8.2 °F 12.2 °F 93% 30.04 in 7.0 mi WNW 3.5 mph - N/A   Clear
9:15 PM 14.0 °F 6.5 °F 14.0 °F 100% 30.04 in 7.0 mi WNW 4.6 mph - N/A   Clear
9:35 PM 14.0 °F 6.5 °F 14.0 °F 100% 30.05 in 6.0 mi NW 4.6 mph - N/A   Clear
9:55 PM 14.0 °F - 14.0 °F 100% 30.04 in 7.0 mi Calm Calm - N/A   Clear
10:15 PM 14.0 °F - 14.0 °F 100% 30.05 in 5.0 mi Calm Calm - N/A   Clear
10:35 PM 12.2 °F 6.1 °F 12.2 °F 100% 30.05 in 5.0 mi NW 3.5 mph - N/A   Clear
10:55 PM 14.0 °F 8.2 °F 14.0 °F 100% 30.05 in 7.0 mi NW 3.5 mph - N/A   Clear
11:15 PM 10.4 °F - 10.4 °F 100% 30.05 in 7.0 mi Calm Calm - N/A   Clear
11:35 PM 10.4 °F - 10.4 °F 100% 30.05 in 7.0 mi Calm Calm - N/A   Clear
11:55 PM 10.4 °F - 10.4 °F 100% 30.05 in 7.0 mi Calm Calm - N/A   Clear